www.pogodaiklimat.ru

Погода и климат >> Архив погоды >> ОАЭ >> Fujairah


ПОГОДА в Fujairah

  • Прогноз погоды в Fujairah
  • Монитор погоды в Fujairah
  • Климат города

АРХИВ ПОГОДЫ в Fujairah

Время (UTC), дата Ветер
(напр.,м/с)
 
Видим.   Явления Облачность Т
(С)
Тd
(С)
f
(%)
Тe
(С)
Тes
(С)
Комфортность P
(гПа)
Po
(гПа)
Тmin
(С)
Tmax
(С)
R
(мм)
R24
(мм)
S
(см)
12 12.12 В 4 10 км ясно +25.9 +16.3 55 +29 +31 душно 1017.4 1017.0
15 12.12 Ю 2 10 км ясно +24.1 +16.4 62 +28 +28 душно 1018.7 1019.0
18 12.12 З 1 10 км ясно +22.5 +16.5 69 +27 +27 душно 1019.5 1020.0 +28.1
21 12.12 СЗ 2 7000 м мгла ясно +20.8 +16.0 74 +25 +25 комфорт 1019.0 1013.6
00 13.12 З 2 7000 м мгла ясно +19.7 +14.7 73 +22 +22 комфорт 1018.9 1019.0
03 13.12 СЗ 2 7000 м мгла ясно +18.7 +13.1 70 +20 +20 1020.2 1020.0
06 13.12 В 2 7000 м мгла ясно +24.8 +16.8 61 +28 +35 жарко 1022.1 1016.7 +18.5
09 13.12 В 4 8000 м мгла 1 балл +25.0 +17.4 63 +29 +35 душно 1020.1 1014.7
12 13.12 В 3 8000 м мгла 3/3 900 м
[Sc]
+25.1 +15.1 54 +28 +29 жарко 1019.1 1019.0
15 13.12 В 1 8000 м мгла ясно +24.0 +15.3 58 +27 +27 жарко 1020.4 1020.0
18 13.12 З 2 7000 м мгла ясно +22.6 +15.4 64 +27 +27 душно 1020.8 1021.0 +25.7
21 13.12 СЗ 2 7000 м мгла ясно +21.5 +15.1 67 +25 +25 комфорт 1020.2 1020.0
00 14.12 СЗ 2 7000 м мгла ясно +20.4 +18.2 87 +25 +25 комфорт 1019.9 1020.0
03 14.12 СЗ 3 8000 м мгла 1/1 450 м
[St]
+20.5 +15.2 72 +24 +24 комфорт 1021.2 1021.0
06 14.12 СВ 3 8000 м мгла 3/3 600 м
[St]
+24.9 +17.4 63 +29 +32 душно 1022.7 1023.0 +19.9
09 14.12 СВ 5 10 км 3/3 600 м
[Sc]
+25.8 +17.3 59 +30 +34 душно 1020.5 1015.1
12 14.12 СВ 5 10 км 3/3 600 м
[Sc]
+25.3 +18.8 67 +30 +31 душно 1019.6 1014.2
15 14.12 СВ 3 10 км 3/3 750 м
[Sc]
+24.1 +19.2 74 +29 +29 душно 1021.2 1021.0
18 14.12 С 3 8000 м мгла 5/5 750 м
[Sc]
+23.6 +17.8 70 +28 +28 душно 1021.4 1021.0 +26.2
21 14.12 СЗ 2 8000 м в посл. час дождь {гроза} 6/6 600 м
[Sc]
+22.2 +16.3 69 +26 +26 душно 1020.6 1021.0
00 15.12 СЗ 3 8000 м мгла {гроза, дождь} 6/6 600 м
[Sc]
+21.7 +15.1 66 +25 +25 комфорт 1020.0 1020.0 0.0
03 15.12 СЗ 2 8000 м мгла 1/1 600 м
[Sc]
+20.2 +15.6 75 +23 +23 комфорт 1021.1 1021.0
06 15.12 СВ 3 8000 м мгла 6/6 900 м
[Cu Sc]
+24.5 +17.5 65 +29 +31 душно 1022.7 1023.0 +20.2
09 15.12 В 3 8000 м мгла 4/4 900 м
[Sc]
+26.3 +16.4 54 +30 +34 душно 1020.4 1020.0
12 15.12 ЮВ 5 8000 м мгла 4/4 900 м
[Sc]
+26.3 +13.4 45 +28 +29 жарко 1019.8 1020.0
15 15.12 ЮВ 3 8000 м мгла 1/1 900 м
[Sc]
+24.7 +13.3 49 +27 +27 жарко 1021.2 1015.8
18 15.12 штиль 0 50 км мгла ?/? +23.3 +12.9 52 +26 +26 жарко 1021.7 1022.0 +27.1
21 15.12 СЗ 2 8000 м мгла ясно +20.9 +12.6 59 +24 +24 комфорт 1021.2 1021.0
00 16.12 СЗ 3 7000 м мгла ясно +20.1 +12.6 62 +22 +22 комфорт 1021.5 1022.0
03 16.12 СЗ 3 10 км ясно +19.4 +12.5 64 +21 +21 комфорт 1022.8 1017.2
06 16.12 СВ 3 10 км ясно +25.3 +13.4 48 +27 +32 жарко 1024.4 1024.0 +19.3
09 16.12 В 4 10 км 3/3 750 м
[Sc]
+26.3 +13.4 45 +28 +33 жарко 1022.5 1023.0
12 16.12 СВ 4 10 км 3/3 750 м
[Sc]
+25.6 +12.8 45 +27 +28 жарко 1021.0 1021.0
15 16.12 СВ 1 10 км ясно +23.8 +14.4 56 +26 +26 жарко 1022.3 1016.9
18 16.12 З 2 8000 м мгла ясно +21.5 +13.7 61 +24 +24 комфорт 1022.7 1023.0 +26.7
21 16.12 СЗ 3 7000 м мгла ясно +20.2 +13.4 65 +23 +23 комфорт 1022.3 1022.0
00 17.12 З 4 8000 м мгла ясно +20.1 +13.3 65 +22 +22 комфорт 1021.6 1022.0
03 17.12 СЗ 4 8000 м мгла ясно +18.8 +11.9 64 +20 +20 1022.3 1022.0
06 17.12 Ю 1 10 км ясно +25.8 +12.9 45 +28 +35 жарко 1023.6 1024.0 +18.7
09 17.12 В 4 10 км ясно +25.7 +11.5 41 +27 +34 жарко 1021.2 1015.8
12 17.12 В 4 10 км 3/3 750 м
[Sc]
+25.1 +15.2 54 +28 +29 жарко 1020.0 1020.0
15 17.12 В 2 10 км ясно +23.4 +14.4 57 +27 +27 душно 1020.9 1015.5
18 17.12 З 2 8000 м мгла ясно +21.3 +13.7 62 +24 +24 комфорт 1021.4 1016.0 +26.2
21 17.12 СЗ 3 8000 м мгла ясно +20.0 +12.5 62 +22 +22 комфорт 1020.7 1015.2
00 18.12 СЗ 3 8000 м мгла ясно +18.6 +10.7 60 +19 +19 1020.6 1021.0
03 18.12 СЗ 3 10 км ясно +17.6 +10.0 61 +18 +18 1021.8 1016.2
06 18.12 Ю 3 10 км ясно +24.7 +11.2 43 +26 +32 жарко 1022.8 1023.0 +17.6
09 18.12 ЮВ 6 10 км ясно +25.7 +13.2 46 +28 +31 жарко 1019.9 1020.0
12 18.12 СВ 4 8000 м мгла ясно +25.0 +15.0 54 +28 +29 жарко 1018.8 1019.0
15 18.12 СВ 1 8000 м ясно +23.5 +14.0 55 +26 +26 жарко 1020.0 1020.0
18 18.12 З 3 10 км ясно +21.2 +14.1 64 +24 +24 комфорт 1020.4 1020.0 +26.3
21 18.12 СЗ 3 10 км ясно +20.3 +10.2 52 +22 +22 комфорт 1019.2 1013.8
00 19.12 СЗ 3 10 км ясно +19.4 +11.1 59 +21 +21 комфорт 1018.8 1019.0
03 19.12 СЗ 4 8000 м мгла ясно +19.9 +12.7 63 +22 +22 комфорт 1019.8 1020.0
06 19.12 З 6 8000 м мгла ясно +24.2 +13.1 50 +26 +29 жарко 1021.6 1022.0 +18.9

 

Местоположение метеостанции Fujairah (ОАЭ): широта 25.10 долгота 56.33 высота над уровнем моря 28 м.

В архиве по умолчанию представлена погода в Fujairah за последнюю неделю. Архивные данные за месяц целиком и за предыдущие месяцы, начиная с января 2011 года, Вы можете получить, выбрав интересующий диапазон дат из раскрывающегося списка и нажав кнопку "Ввод!".


*Определитесь, кто Вы:
робот инопланетянин человек

Внимание! Время в таблицах - всемирное. Для получения местного времени необходимо прибавить поправку, которая в Fujairah равна 4 ч.

Смотрите также архив погоды в соседних городах и на ближайших метеорологических станциях:

Погода в Diba (Оман) (58 км)
Погода в Ras Al Khaimah Int Airport (ОАЭ) (70 км)
Погода в Sohar Majis (Оман) (76 км)
Погода в Sharjah (ОАЭ) (85 км)
Погода в Dubai (ОАЭ) (102 км)
Погода в Buraimi (Оман) (112 км)
Погода в Al Ain Int Airport (ОАЭ) (118 км)
Погода в Khasab Airport (Оман) (119 км)
Погода в Dubai Al Maktoum Int Airport (ОАЭ) (120 км)
Погода в Khasab (Оман) (124 км)

Пояснения к столбцам:

Ветер - указаны скорость ветра в м/с - средняя за 10 мин, порывы в срок и между сроками (в фигурных скобках) и направление, откуда дует ветер: С - северный, СВ - северо-восточный, В - восточный, ЮВ - юго-восточный, Ю - южный, ЮЗ - юго-западный, З - западный, СЗ - северо-западный.
Видимость - горизонтальная дальность видимости в метрах или километрах. При видимости от 1 до 10 км при отсутствии осадков обычно наблюдается дымка, при ухудшении видимости до 1 км и менее - туман. В сухую погоду видимость может ухудшаться дымом, пылью или мглою.
Явления - указаны атмосферные явления, наблюдавшиеся в срок или в последний час перед сроком; фигурными скобками обозначены явления, наблюдавшиеся между сроками (за 1-3 часа до срока); квадратными скобками обозначены град или гололедные отложения с указанием их диаметра в мм.
Облачность - указаны через наклонную черту общая и нижняя облачность в баллах и высота нижней границы облаков в метрах; квадратными скобками обозначены формы облаков: Ci - перистые, Cs - перисто-слоистые, Cc - перисто-кучевые, Ac - высококучевые, As - высокослоистые, Sc - слоисто-кучевые, Ns - слоисто-дождевые, Cu - кучевые, Cb - кучево-дождевые. Подробнее классификацию облаков см. в Атласе облаков (PDF).
T - Температура воздуха - температура, измеренная на высоте 2 м над землей.
Td - Температура точки росы - температура, при понижении до которой содержащийся в воздухе водяной пар достигнет насыщения.
f - Относительная влажность воздуха - влажноcть воздуха, измеренная на высоте 2 м над землей.
Te - Эффективная температура - температура, которую ощущает одетый по сезону человек в тени. Характеристика душности погоды. При расчете учитывается влияние влажности воздуха и скорости ветра на теплоощущения человека.
Tes - Эффективная температура на солнце - температура, которую ощущает человек, с поправкой на солнечный нагрев. Характеристика знойности погоды. Зависит от высоты солнца над горизонтом, облачности и скорости ветра. Ночью, в пасмурную погоду, а также при ветре 12 м/с и более поправка равна нулю.
P - Атмосферное давление - приведенное к уровню моря атмосферное давление.
Po - Атмосферное давление - измеренное на уровне метеостанции атмосферное давление.
Tmin - Минимальная температура - минимум температуры воздуха на высоте 2 м над землей.
Tmax - Максимальная температура - максимум температуры воздуха на высоте 2 м над землей.
R - Количество осадков - Количество выпавших осадков за период времени, мм. При наведении курсора мыши на число - период времени, за который выпало указанное количество осадков.
R24 - Количество осадков - Количество выпавших осадков за 24 часа, мм.
S - Снежный покров - Высота снежного покрова, см. При наведении курсора мыши на число - состояние снежного покрова и степень покрытия местности в баллах.